Bellefontaine, OH

8:03 PM EDT on August 25, 2016 (GMT -0400)
Bellefontaine

Weather History for KEDJ - June, 2013

Change the Weather History Date:

Friday, June 14, 2013

  Actual Average (KDAY) Record (KDAY)
Temperature  
Mean Temperature 64 °F 70 °F  
Max Temperature 75 °F 80 °F 94 °F (1988)
Min Temperature 53 °F 61 °F 46 °F (1978)
Degree Days  
Heating Degree Days 1 1  
Month to date heating degree days 20  
Since 1 June heating degree days 20  
Since 1 July heating degree days 5640  
Cooling Degree Days 0 6  
Month to date cooling degree days 68  
Year to date cooling degree days 138  
Since 1 June cooling degree days 68  
Growing Degree Days 14 (Base 50)    
Moisture  
Dew Point 56 °F    
Average Humidity 71    
Maximum Humidity 100    
Minimum Humidity 50    
Precipitation  
Precipitation 0.00 in 0.13 in 1.29 in (1996)
Month to date precipitation 1.96  
Year to date precipitation 19.00  
Snow  
Snow 0.00 in 0.00 in 0.00 in ()
Month to date snowfall 0.0  
Since 1 June snowfall 0.0  
Since 1 July snowfall 23.3  
Snow Depth -    
Sea Level Pressure  
Sea Level Pressure 30.01 in    
Wind  
Wind Speed 5 mph (North)    
Max Wind Speed 14 mph    
Max Gust Speed 18 mph    
Visibility 10 miles    
Events      
T = Trace of Precipitation, MM = Missing Value Source: NWS Daily Summary

Daily Weather History Graph

Daily Weather History Graph

Search for Another Location

Airport or City:

Trip Planner

Search our weather history database for the weather conditions in past years. The results will help you decide how hot, cold, wet, or windy it might be!

Date:

Astronomy

Jun. 14, 2013 Rise Set
Actual Time 6:04 AM EDT 9:06 PM EDT
Civil Twilight 5:31 AM EDT 9:39 PM EDT
Nautical Twilight 4:49 AM EDT 10:21 PM EDT
Astronomical Twilight 4:00 AM EDT 11:11 PM EDT
Moon 11:39 AM EDT (6/14) 12:11 AM EDT (6/14)
Length of Visible Light 16h 08m
Length of Day
15h 02m
Waxing Crescent, 30% of the Moon is Illuminated
Jun 14
Waxing Crescent
Jun 16
First Quarter
Jun 23
Full
Jun 30
Last Quarter
Jul 8
New

Hourly Weather History & Observations

Time (EDT) Temp. Dew Point Humidity Pressure Visibility Wind Dir Wind Speed Gust Speed Precip Events Conditions
12:05 AM 64.4 °F 55.4 °F 73% 29.92 in 10.0 mi NW 5.8 mph - 0.00 in   Overcast
12:25 AM 64.4 °F 55.4 °F 73% 29.92 in 10.0 mi NW 5.8 mph - 0.00 in   Overcast
12:45 AM 64.4 °F 55.4 °F 73% 29.93 in 10.0 mi NW 6.9 mph - 0.00 in   Mostly Cloudy
1:05 AM 64.4 °F 55.4 °F 73% 29.92 in 10.0 mi NW 4.6 mph - 0.00 in   Mostly Cloudy
1:25 AM 62.6 °F 55.4 °F 77% 29.93 in 10.0 mi Calm Calm - 0.00 in   Mostly Cloudy
1:45 AM 62.6 °F 55.4 °F 77% 29.93 in 10.0 mi WNW 3.5 mph - 0.00 in   Scattered Clouds
2:05 AM 60.8 °F 57.2 °F 88% 29.93 in 10.0 mi Calm Calm - 0.00 in   Scattered Clouds
2:25 AM 60.8 °F 57.2 °F 88% 29.92 in 10.0 mi Calm Calm - 0.00 in   Scattered Clouds
2:45 AM 59.0 °F 57.2 °F 94% 29.92 in 10.0 mi Calm Calm - 0.00 in   Clear
3:05 AM 59.0 °F 57.2 °F 94% 29.92 in 10.0 mi Calm Calm - 0.00 in   Clear
3:25 AM 59.0 °F 57.2 °F 94% 29.93 in 10.0 mi Calm Calm - 0.00 in   Clear
3:45 AM 57.2 °F 57.2 °F 100% 29.92 in 10.0 mi Calm Calm - 0.00 in   Clear
4:05 AM 57.2 °F 57.2 °F 100% 29.92 in 10.0 mi Calm Calm - 0.00 in   Clear
4:25 AM 57.2 °F 57.2 °F 100% 29.93 in 10.0 mi Calm Calm - 0.00 in   Clear
4:45 AM 55.4 °F 55.4 °F 100% 29.92 in 10.0 mi Calm Calm - 0.00 in   Clear
5:05 AM 55.4 °F 55.4 °F 100% 29.93 in 8.0 mi Calm Calm - 0.00 in   Clear
5:25 AM 55.4 °F 55.4 °F 100% 29.93 in 7.0 mi Calm Calm - 0.00 in   Clear
5:45 AM 53.6 °F 53.6 °F 100% 29.94 in 9.0 mi Calm Calm - 0.00 in   Clear
6:05 AM 55.4 °F 55.4 °F 100% 29.95 in 5.0 mi Calm Calm - 0.00 in   Clear
6:25 AM 55.4 °F 55.4 °F 100% 29.96 in 7.0 mi Calm Calm - 0.00 in   Clear
6:45 AM 55.4 °F - N/A% 29.96 in 9.0 mi NNE 3.5 mph - 0.00 in   Clear
7:05 AM 57.2 °F - N/A% 29.98 in 10.0 mi North 4.6 mph - 0.00 in   Clear
7:25 AM 59.0 °F - N/A% 29.99 in 9.0 mi NNW 3.5 mph - 0.00 in   Clear
7:45 AM 60.8 °F - N/A% 30.00 in 10.0 mi NNW 6.9 mph - 0.00 in   Clear
8:05 AM 60.8 °F 60.8 °F 100% 30.00 in 10.0 mi North 8.1 mph - 0.00 in   Clear
8:25 AM 62.6 °F 62.6 °F 100% 30.01 in 10.0 mi North 9.2 mph - 0.00 in   Clear
8:45 AM 62.6 °F 60.8 °F 94% 30.02 in 10.0 mi North 10.4 mph - 0.00 in   Clear
9:05 AM 64.4 °F 59.0 °F 83% 30.03 in 10.0 mi North 10.4 mph - 0.00 in   Clear
9:25 AM 64.4 °F 59.0 °F 83% 30.03 in 10.0 mi North 10.4 mph - 0.00 in   Partly Cloudy
9:45 AM 66.2 °F 57.2 °F 73% 30.03 in 10.0 mi North 11.5 mph - 0.00 in   Scattered Clouds
10:05 AM 66.2 °F 57.2 °F 73% 30.04 in 10.0 mi North 9.2 mph - 0.00 in   Partly Cloudy
10:25 AM 66.2 °F 57.2 °F 73% 30.04 in 10.0 mi North 10.4 mph - 0.00 in   Scattered Clouds
10:45 AM 68.0 °F 57.2 °F 68% 30.05 in 10.0 mi North 12.7 mph - 0.00 in   Mostly Cloudy
11:05 AM 68.0 °F 57.2 °F 68% 30.06 in 10.0 mi North 10.4 mph - 0.00 in   Scattered Clouds
11:25 AM 69.8 °F 55.4 °F 60% 30.06 in 10.0 mi NNE 10.4 mph 18.4 mph 0.00 in   Scattered Clouds
11:45 AM 69.8 °F 55.4 °F 60% 30.06 in 10.0 mi North 12.7 mph 18.4 mph 0.00 in   Mostly Cloudy
12:05 PM 69.8 °F 55.4 °F 60% 30.06 in 10.0 mi North 11.5 mph - 0.00 in   Mostly Cloudy
12:25 PM 69.8 °F 55.4 °F 60% 30.06 in 10.0 mi North 13.8 mph - 0.00 in   Scattered Clouds
12:45 PM 71.6 °F 57.2 °F 60% 30.06 in 10.0 mi North 12.7 mph - 0.00 in   Partly Cloudy
1:05 PM 71.6 °F 55.4 °F 57% 30.06 in 10.0 mi North 11.5 mph - 0.00 in   Partly Cloudy
1:25 PM 71.6 °F 53.6 °F 53% 30.05 in 10.0 mi NNE 10.4 mph - 0.00 in   Scattered Clouds
1:45 PM 71.6 °F 55.4 °F 57% 30.05 in 10.0 mi North 8.1 mph 18.4 mph 0.00 in   Partly Cloudy
2:05 PM 71.6 °F 53.6 °F 53% 30.05 in 10.0 mi NNW 8.1 mph - 0.00 in   Scattered Clouds
2:25 PM 71.6 °F 53.6 °F 53% 30.04 in 10.0 mi North 9.2 mph - 0.00 in   Mostly Cloudy
2:45 PM 73.4 °F 53.6 °F 50% 30.04 in 10.0 mi North 9.2 mph - 0.00 in   Partly Cloudy
3:05 PM 73.4 °F 53.6 °F 50% 30.04 in 10.0 mi NNE 6.9 mph - 0.00 in   Partly Cloudy
3:25 PM 73.4 °F 53.6 °F 50% 30.03 in 10.0 mi North 11.5 mph - 0.00 in   Partly Cloudy
3:45 PM 73.4 °F 53.6 °F 50% 30.03 in 10.0 mi North 9.2 mph - 0.00 in   Partly Cloudy
4:05 PM 73.4 °F 53.6 °F 50% 30.02 in 10.0 mi North 3.5 mph - 0.00 in   Partly Cloudy
4:25 PM 71.6 °F 53.6 °F 53% 30.03 in 10.0 mi NNE 3.5 mph - 0.00 in   Mostly Cloudy
4:45 PM 71.6 °F 53.6 °F 53% 30.04 in 10.0 mi NE 6.9 mph - 0.00 in   Mostly Cloudy
5:05 PM 71.6 °F 53.6 °F 53% 30.04 in 10.0 mi NNE 5.8 mph - 0.00 in   Mostly Cloudy
5:25 PM 73.4 °F 55.4 °F 53% 30.04 in 10.0 mi NE 4.6 mph - 0.00 in   Partly Cloudy
5:45 PM 75.2 °F 55.4 °F 50% 30.04 in 10.0 mi North 8.1 mph - 0.00 in   Partly Cloudy
6:05 PM 71.6 °F 53.6 °F 53% 30.03 in 10.0 mi NNW 4.6 mph - 0.00 in   Partly Cloudy
6:25 PM 73.4 °F 53.6 °F 50% 30.03 in 10.0 mi NE 6.9 mph - 0.00 in   Partly Cloudy
6:45 PM 73.4 °F 55.4 °F 53% 30.03 in 10.0 mi NE 5.8 mph - 0.00 in   Scattered Clouds
7:05 PM 73.4 °F 53.6 °F 50% 30.03 in 10.0 mi NW 6.9 mph - 0.00 in   Mostly Cloudy
7:25 PM 73.4 °F 53.6 °F 50% 30.03 in 10.0 mi North 5.8 mph - 0.00 in   Scattered Clouds
7:45 PM 73.4 °F 53.6 °F 50% 30.03 in 10.0 mi NNE 5.8 mph - 0.00 in   Mostly Cloudy
8:05 PM 71.6 °F 55.4 °F 57% 30.03 in 10.0 mi North 4.6 mph - 0.00 in   Partly Cloudy
8:25 PM 69.8 °F 55.4 °F 60% 30.04 in 10.0 mi Calm Calm - 0.00 in   Clear
8:45 PM 68.0 °F 57.2 °F 68% 30.04 in 10.0 mi Calm Calm - 0.00 in   Clear
9:05 PM 66.2 °F 55.4 °F 68% 30.04 in 10.0 mi Calm Calm - 0.00 in   Clear
9:25 PM 64.4 °F 57.2 °F 77% 30.04 in 10.0 mi Calm Calm - 0.00 in   Mostly Cloudy
9:45 PM 64.4 °F 55.4 °F 73% 30.05 in 10.0 mi Calm Calm - 0.00 in   Partly Cloudy
10:05 PM 64.4 °F 55.4 °F 73% 30.06 in 10.0 mi Calm Calm - 0.00 in   Clear
10:25 PM 64.4 °F 55.4 °F 73% 30.06 in 10.0 mi East 3.5 mph - 0.00 in   Clear
10:45 PM 64.4 °F 55.4 °F 73% 30.06 in 10.0 mi East 4.6 mph - 0.00 in   Clear
11:05 PM 64.4 °F 55.4 °F 73% 30.06 in 10.0 mi East 4.6 mph - 0.00 in   Clear
11:25 PM 62.6 °F 55.4 °F 77% 30.07 in 10.0 mi East 4.6 mph - 0.00 in   Clear
11:45 PM 62.6 °F 55.4 °F 77% 30.07 in 10.0 mi ESE 3.5 mph - 0.00 in   Clear